Weather History for GMFO - February, 2014

Change the Weather History Date:

Sunday, February 23, 2014

  Actual Average Record
Temperature  
Mean Temperature 57 °F -  
Max Temperature 75 °F 65 °F 75 °F (2014)
Min Temperature 39 °F 42 °F 33 °F (2002)
Degree Days  
Heating Degree Days 8    
Growing Degree Days 7 (Base 50)    
Moisture  
Dew Point 38 °F    
Average Humidity 56    
Maximum Humidity 87    
Minimum Humidity 14    
Precipitation  
Precipitation 0.00 in 0.06 in - ()
Sea Level Pressure  
Sea Level Pressure 30.06 in    
Wind  
Wind Speed 7 mph ()    
Max Wind Speed 17 mph    
Max Gust Speed -    
Visibility 8.7 miles    
Events      
Averages and records for this station are not official NWS values.
T = Trace of Precipitation, MM = Missing Value Source: Averaged Metar Reports

Daily Weather History Graph

Daily Weather History Graph

Search for Another Location

Airport or City:

Trip Planner

Search our weather history database for the weather conditions in past years. The results will help you decide how hot, cold, wet, or windy it might be!

Date:

Astronomy

Feb. 23, 2014 Rise Set
Actual Time 6:44 AM WET 5:57 PM WET
Civil Twilight 6:19 AM WET 6:23 PM WET
Nautical Twilight 5:49 AM WET 6:52 PM WET
Astronomical Twilight 5:20 AM WET 7:22 PM WET
Moon 1:21 AM WET (2/23) 11:54 AM WET (2/23)
Length of Visible Light 12h 04m
Length of Day
11h 13m
Last Quarter, 41% of the Moon is Illuminated
Feb 23
Last Quarter
Mar 1
New
Mar 8
First Quarter
Mar 16
Full
Mar 24
Last Quarter

Hourly Weather History & Observations

Time (WET) Temp. Windchill Dew Point Humidity Pressure Visibility Wind Dir Wind Speed Gust Speed Precip Events Conditions
12:00 AM 39.2 °F 35.9 °F 35.6 °F 87% 30.24 in 6.2 mi SW 4.6 mph - N/A   Partly Cloudy
2:00 AM 39.2 °F 35.0 °F 35.6 °F 87% 30.18 in 6.2 mi SW 5.8 mph - N/A   Partly Cloudy
3:00 AM 39 °F - 34 °F 77% 30.22 in 9 mi South 4.6 mph - -   Scattered Clouds
3:00 AM 39.2 °F 35.9 °F 33.8 °F 81% 30.15 in 6.2 mi South 4.6 mph - N/A   Partly Cloudy
7:00 AM 42.8 °F 41.1 °F 35.6 °F 76% 30.12 in - North 3.5 mph - N/A   Clear
8:00 AM 44.6 °F - 35.6 °F 71% 30.12 in - Variable 2.3 mph - N/A   Clear
8:45 AM 52 °F - 41 °F 57% 30.12 in - SE 3.5 mph - -  
9:50 AM 62.6 °F - 30.2 °F 30% 30.09 in - South 16.1 mph - N/A   Unknown
10:00 AM 62.6 °F - 32.0 °F 32% 30.09 in - South 16.1 mph - N/A   Unknown
11:00 AM 66.2 °F - 32.0 °F 28% 30.06 in - South 16.1 mph - N/A   Unknown
12:00 PM 70 °F - 32 °F 14% 30.00 in 12 mi SW 12.7 mph - -  
12:00 PM 69.8 °F - 32.0 °F 25% 30.04 in - SW 12.7 mph - N/A   Clear
2:00 PM 75.2 °F - 28.4 °F 18% 29.98 in - WSW 5.8 mph - N/A   Clear
3:00 PM 70 °F - 44 °F 27% 29.92 in 12 mi North 17.3 mph - -   Clear
3:00 PM 69.8 °F - 44.6 °F 40% 29.98 in - North 17.3 mph - N/A   Clear
4:00 PM 68.0 °F - 50.0 °F 52% 29.98 in - North 8.1 mph - N/A   Clear
5:00 PM 66.2 °F - 46.4 °F 49% 29.98 in - North 9.2 mph - N/A   Clear
8:00 PM 51.8 °F - 41.0 °F 67% 30.01 in - WSW 5.8 mph - N/A   Clear
9:00 PM 48 °F - 42 °F 72% 30.04 in 9 mi WSW 3.5 mph - -   Clear
9:00 PM 48.2 °F - 42.8 °F 82% 30.01 in - WSW 3.5 mph - N/A   Clear
10:00 PM 48.2 °F - 42.8 °F 82% 30.01 in - WSW 5.8 mph - N/A   Clear
11:00 PM 48.2 °F - 41.0 °F 76% 30.04 in - West 5.8 mph - N/A   Clear